Regional Weather Roundup
Issued by NWS Green Bay, WI

Home | Current Version | Previous Version | Text Only | Print | Product List | Glossary On
Versions: 1 2 3 4 5 6 7 8 9 10 11 12 13 14 15 16 17 18 19 20 21 22 23 24 25 26 27 28 29 30 31 32 33 34 35 36 37 38 39 40 41 42 43 44 45 46 47 48 49 50
000
ASUS43 KGRB 290500
RWRGRB

NORTH-CENTRAL AND NORTHEAST WISCONSIN REGIONAL WEATHER ROUNDUP
NATIONAL WEATHER SERVICE GREEN BAY WI
1200 AM CDT FRI MAY 29 2015

WIZ005-009-010>012-018-019-290600-
NORTH CENTRAL WISCONSIN

CITY           SKY/WX    TMP DP  RH WIND       PRES   REMARKS
IRONWOOD       MOCLDY    70  55  60 S10       29.95F
MANITOWISH WTR NOT AVBL
ARBOR VITAE    NOT AVBL
EAGLE RIVER    NOT AVBL
LAND O LAKES   NOT AVBL
RHINELANDER    MOCLDY    65  54  67 S3        30.05F
PHILLIPS       NOT AVBL
ANTIGO         NOT AVBL
TOMAHAWK       NOT AVBL
MERRILL        NOT AVBL
$$

WIZ013-073-290600-
NORTHEAST WISCONSIN

CITY           SKY/WX    TMP DP  RH WIND       PRES   REMARKS
IRON MOUNTAIN  PTCLDY    62  59  90 S5        30.04S
MARINETTE      PTCLDY    64  48  55 SW8       30.06R
$$

WIZ017-030-035>037-045-290600-
CENTRAL WISCONSIN

CITY           SKY/WX    TMP DP  RH WIND       PRES   REMARKS
MEDFORD        NOT AVBL
WAUSAU         MOCLDY    63  56  78 SE3       30.03R
MOSINEE        NOT AVBL
MARSHFIELD     CLOUDY    66  54  65 S5        30.02F
WISC RAPIDS    CLOUDY    67  53  61 SE3       30.04R
STEVENS POINT  NOT AVBL
WAUPACA        NOT AVBL
SHAWANO        NOT AVBL
CLINTONVILLE   NOT AVBL
$$

WIZ038-039-048-051-290600-
FOX VALLEY

CITY           SKY/WX    TMP DP  RH WIND       PRES   REMARKS
NWS GREEN BAY  CLEAR     67  54  63 S6        30.06S
APPLETON       NOT AVBL
OSHKOSH        PTCLDY    65  54  67 S7        30.05S
FOND DU LAC    PTCLDY    66  54  65 S10       30.06R
$$

WIZ022-050-052-290600-
EAST CENTRAL WISCONSIN

CITY           SKY/WX    TMP DP  RH WIND       PRES   REMARKS
STURGEON BAY   PTCLDY    63  52  67 S9        30.09S
MANITOWOC      NOT AVBL
SHEBOYGAN      PTCLDY    57  54  89 CALM      30.08S
$$

LMZ563-521-522-541>543-290600-
LAKESHORE

STATION/POSITION TIME  TEMP    WIND        PRES    VSBY  WAVE
                       AIR SEA DIR/SP/G                  HT/PER
                 (UTC) (F)     (DEG/KT/KT) (MB)    (MI)  (FT/S)
SHEBOYGAN LKSHOR 0400   60     190/ 13/ 13 1018.8F
KEWAUNEE LKSHORE 0400   49     160/  5/  7 1017.8F
ALGOMA MARINA    0408           CALM  /  3   N/A
NORTHPORT PIER   0400   62     160/  6/ 10 1017.9F
N MID LAKE BUOY  0350   42 37  160/  4/  6 1019.2F         1
SISTER BAY LKSHO 0418   62     190/ 14/ 17   N/A
CHAMBERS ISLAND  0400   66     160/  6/ 14 1017.9R
MENOMINEE LKSHOR 0400   67     170/ 10/ 12 1018.3F
$$



USA.gov is the U.S. government's official web portal to all federal, state and local government web resources and services.